Flag for Japan Weather past 2 weeks in Hamamatsu, Japan

Now
67 °F

Light rain. Cloudy.


Feels Like: 67 °F
Forecast: 67 / 72 °F
Wind: 10 mph from Northeast

Location: Omaezaki

Current Time: Jul 6, 2015 at 10:35:52 AM

Latest Report: Jul 6, 2015 at 9:00 AM


Visibility: 2 mi

Pressure: 29.87 "Hg

Humidity: 100%

Dew point: 67 °F

Location of HamamatsuLocation

Historic Weather in Hamamatsu — Graph

°F

Hamamatsu temperature yesterday

Maximum temperature yesterday: 68 °F (at 3:00 PM)
Minimum temperature yesterday: 65 °F (at 7:00 AM)
Average temperature yesterday: 67 °F

Past Weeks' High & Low Weather Summary

 TemperatureHumidityPressure
High80 °F (Jun 28, 11:00 AM)100% (Jun 26, 11:00 PM)29.94 "Hg (Jun 26, 11:00 PM)
Low64 °F (Jun 22, 5:00 AM)49% (Jun 28, 11:00 AM)29.29 "Hg (Jul 1, 12:00 PM)
Average70 °F90%29.72 "Hg
* Reported Jun 21 9:00 AM — Jul 6 9:00 AM, Hamamatsu, Weather by CustomWeather, © 2015

Note: Actual official high and low records may vary slightly from our data, if they occured in-between our weather recording intervals... More about our weather records

Advertising

Hamamatsu weather history for previous 24 hours

 ConditionsComfort  
Time TempWeatherWind HumidityBarometerVisibility
9:00 AM
Mon, Jul 6
67 °FLight rain. Cloudy.10 mph100%29.87 "Hg2 mi
8:00 AM67 °FRain. Cloudy.9 mph100%29.89 "Hg1 mi
7:00 AM67 °FLight rain. Cloudy.10 mph100%29.89 "Hg2 mi
6:00 AM67 °FLight rain. Cloudy.10 mph100%29.88 "Hg1 mi
5:00 AM67 °FRain. Cloudy.8 mph100%29.88 "Hg1 mi
4:00 AM67 °FLight rain. Cloudy.10 mph100%29.86 "Hg1 mi
3:00 AM67 °FLight rain. Overcast.9 mph99%29.86 "Hg2 mi
2:00 AM67 °FLight rain. Overcast.8 mph99%29.87 "Hg2 mi
1:00 AM67 °FMild.6 mph100%29.87 "Hg1 mi
12:00 AM67 °FLight rain. Overcast.3 mph99%29.88 "Hg1 mi
11:00 PM
Sun, Jul 5
67 °FLight rain. Overcast.2 mph99%29.88 "Hg3 mi
10:00 PM67 °FFog.3 mph99%29.89 "Hg3 mi
9:00 PM67 °FFog.1 mph99%29.89 "Hg4 mi
8:00 PM67 °FMild.3 mph99%29.87 "Hg4 mi
7:00 PM67 °FLight rain. Overcast.2 mph98%29.87 "Hg6 mi
6:00 PM67 °FLight rain. Cloudy.3 mph98%29.85 "Hg4 mi
5:00 PM67 °FLight rain. Cloudy.3 mph96%29.84 "Hg6 mi
4:00 PM68 °FLight rain. Cloudy.1 mph95%29.85 "Hg12 mi
3:00 PM68 °FLight rain. Cloudy.3 mph96%29.84 "Hg12 mi
2:00 PM67 °FLight rain. Cloudy.2 mph98%29.85 "Hg4 mi
1:00 PM67 °FLight rain. Cloudy.3 mph98%29.86 "Hg4 mi
11:00 AM67 °FLight rain. Cloudy.5 mph98%29.86 "Hg3 mi
10:00 AM68 °FLight rain. Cloudy.1 mph97%29.86 "Hg5 mi
Weather by CustomWeather, © 2015

See weather overviewHow to use our weather pages